This demonstration page uses our WeatherBlox Daily Observations layout. Learn more.

Left ArrowRight Arrow

40.92501, -98.34201

Hourly Observations for June 11, 2015

Temp ( °F °C ) Dew Point ( °F °C ) Humidity (%) Winds ( mph kmh ) Pressure ( in mb ) Visibility ( mi km ) Precip ( " mm )
12:25 am 00:25 Cloudy with Rain 64 17.8 63 17.2 96 96 ENE 14 22 29.74 1007 4 6 0.07 1.78
12:35 am 00:35 Cloudy with Light Rain 64 18 63 17 94 94 NE 14 22 29.71 1006 5 8 0.00 0.00
12:53 am 00:53 Cloudy with Light Rain 64 17.8 63 17.2 96 96 ENE 17 28 29.68 1005 3 5 0.17 4.32
1:10 am 01:10 Cloudy with Light Rain 64 18 64 18 100 100 E 14 22 29.71 1006 7 11 0.00 0.00
1:53 am 01:53 Cloudy with Light Rain 65 18.3 64 17.8 97 97 E 17 28 29.65 1004 6 10 0.10 2.54
2:00 am 02:00 Cloudy with Light Rain 64 18 64 18 100 100 ESE 15 24 29.68 1005 7 11 0.00 0.00
2:53 am 02:53 Mostly Cloudy with Light Rain 66 18.9 64 17.8 93 93 ESE 10 17 29.67 1005 10 16 0.00 0.03
3:45 am 03:45 Mostly Cloudy with Light Rain 66 18.9 64 17.8 93 93 ESE 12 19 29.65 1004 10 16 0.00 0.03
3:53 am 03:53 Mostly Cloudy with Light Rain 66 18.9 64 17.8 93 93 ESE 9 15 29.65 1004 10 16 0.00 0.03
3:55 am 03:55 Cloudy with Light Rain 66 18.9 65 18.3 96 96 ESE 12 19 29.65 1004 10 16 0.00 0.03
4:10 am 04:10 Cloudy with Light Rain 66 19 64 18 94 94 ESE 9 15 29.62 1003 10 16 0.00 0.00
4:53 am 04:53 Cloudy 67 19.4 66 18.9 97 97 SE 8 13 29.65 1004 10 16 0.01 0.25
5:53 am 05:53 Cloudy 68 20 67 19.4 96 96 ESE 6 9 29.64 1004 10 16 0.00 0.03
6:08 am 06:08 Mostly Cloudy 68 20 66 19 94 94 Calm 29.62 1003 10 16 0.00 0.00
6:19 am 06:19 Mostly Cloudy 68 20 66 19 94 94 NE 3 6 29.62 1003 10 16 0.00 0.00
6:45 am 06:45 Cloudy 68 20 67 19.4 96 96 NE 6 9 29.65 1004 10 16 0.00 0.00
6:53 am 06:53 Cloudy 68 20 67 19.4 96 96 NE 6 9 29.65 1004 10 16 0.00 0.00
7:40 am 07:40 Cloudy 68 20 66 19 94 94 ENE 8 13 29.65 1004 10 16 0.00 0.00
7:53 am 07:53 Cloudy 68 20 67 19.4 96 96 ENE 8 13 29.68 1005 8 13 0.00 0.03
8:01 am 08:01 Cloudy 68 20 67 19.4 96 96 ENE 9 15 29.65 1004 8 13 0.00 0.00
8:32 am 08:32 Cloudy with Light Rain 68 20 66 19 94 94 E 9 15 29.65 1004 10 16 0.00 0.00
8:42 am 08:42 Cloudy with Light Rain 68 20 67 19.4 96 96 E 9 15 29.65 1004 10 16 0.00 0.03
8:53 am 08:53 Cloudy with Light Rain 68 20 67 19.4 96 96 E 9 15 29.69 1005 8 13 0.00 0.03
9:14 am 09:14 Cloudy with Light Rain 67 19.4 66 18.9 97 97 E 9 15 29.65 1004 4 6 0.01 0.25
9:43 am 09:43 Cloudy 68 20 66 19 94 94 E 7 11 29.65 1004 8 13 0.00 0.00
9:53 am 09:53 Cloudy 68 20 67 19.4 96 96 E 7 11 29.68 1005 9 14 0.01 0.25
10:45 am 10:45 Cloudy with Light Rain 66 19 66 19 100 100 NE 10 17 29.65 1004 3 4 0.00 0.00
10:53 am 10:53 Cloudy with Light Rain 67 19.4 66 18.9 97 97 NE 10 17 29.69 1006 2 3 0.00 0.03
11:53 am 11:53 Cloudy with Mist and Fog 67 19.4 66 18.9 97 97 NNE 13 20 29.70 1006 2 3 0.00 0.03
12:15 pm 12:15 Cloudy with Mist and Fog 66 19 64 18 94 94 N 13 20 29.68 1005 3 5 0.00 0.00
12:29 pm 12:29 Cloudy with Mist and Fog 66 18.9 65 18.3 96 96 N 13 20 29.68 1005 3 4 0.00 0.00
12:53 pm 12:53 Cloudy with Light Rain 66 18.9 65 18.3 96 96 N 15 24 29.72 1007 2 2 0.00 0.03
1:42 pm 13:42 Cloudy with Light Rain 65 18.3 64 17.8 97 97 N 15 24 29.71 1006 3 4 0.00 0.03
2:04 pm 14:04 Partly Cloudy with Light Rain 66 19 64 18 94 94 N 17 28 29.68 1005 3 4 0.00 0.00
2:15 pm 14:15 Partly Cloudy with Light Rain 66 18.9 65 18.3 96 96 N 15 24 29.74 1007 3 5 0.02 0.51
2:20 pm 14:20 Cloudy with Light Rain 66 18.9 64 17.8 93 93 N 15 24 29.74 1007 3 4 0.02 0.51
2:36 pm 14:36 Cloudy with Light Rain 66 19 64 18 94 94 NNE 15 24 29.74 1007 3 5 0.00 0.00
2:53 pm 14:53 Cloudy with Light Rain 65 18.3 63 17.2 93 93 N 15 24 29.75 1008 6 10 0.02 0.51
3:28 pm 15:28 Cloudy with Light Rain 64 18 63 17 94 94 N 17 28 29.74 1007 6 10 0.00 0.00
3:40 pm 15:40 Cloudy with Light Rain 64 18 63 17 94 94 N 18 30 29.74 1007 10 16 0.00 0.00
3:53 pm 15:53 Cloudy 65 18.3 62 16.7 90 90 N 17 28 29.76 1008 10 16 0.00 0.03
4:31 pm 16:31 Cloudy 64 17.8 62 16.7 93 93 N 16 26 29.77 1008 10 16 0.00 0.03
4:50 pm 16:50 Cloudy 63 17 61 16 94 94 N 16 26 29.77 1008 8 13 0.00 0.03
4:53 pm 16:53 Cloudy with Mist and Fog 63 17.2 61 16.1 93 93 N 15 24 29.78 1009 6 10 0.00 0.03
5:21 pm 17:21 Cloudy 64 18 61 16 88 88 N 16 26 29.77 1008 10 16 0.00 0.00
5:53 pm 17:53 Cloudy 64 17.8 61 16.1 90 90 N 15 24 29.79 1009 10 16 0.00 0.00
6:53 pm 18:53 Cloudy 64 17.8 60 15.6 87 87 N 13 20 29.80 1009 10 16 0.00 0.00
7:35 pm 19:35 Cloudy 63 17.2 59 15 87 87 N 18 30 29.80 1009 10 16 0.00 0.00
7:53 pm 19:53 Cloudy 63 17.2 59 15 87 87 N 14 22 29.82 1010 10 16 0.00 0.00
8:53 pm 20:53 Cloudy 62 16.7 58 14.4 86 86 N 17 28 29.84 1011 10 16 0.00 0.00
9:21 pm 21:21 Cloudy 62 16.7 58 14.4 86 86 N 15 24 29.83 1010 10 16 0.00 0.00
9:53 pm 21:53 Cloudy 61 16.1 58 14.4 90 90 N 18 30 29.86 1011 10 16 0.00 0.00
10:53 pm 22:53 Cloudy 61 16.1 58 14.4 90 90 NNE 14 22 29.89 1012 10 16 0.00 0.00
11:34 pm 23:34 Cloudy 61 16 57 14 88 88 NNE 17 28 29.85 1011 10 16 0.00 0.00
11:45 pm 23:45 Cloudy 61 16.1 58 14.4 90 90 NNE 15 24 29.85 1011 10 16 0.00 0.00
11:53 pm 23:53 Cloudy 61 16.1 58 14.4 90 90 NNE 13 20 29.89 1012 10 16 0.00 0.00

Powered by AerisWeather